Denver, CO

3:48 PM MDT on October 17, 2017 (GMT -0600)
Front Range

Weather History for KFTG - May, 2013

Change the Weather History Date:

Wednesday, May 22, 2013

  Actual Average (KBKF) Record (KBKF)
Temperature  
Mean Temperature 59 °F -  
Max Temperature 77 °F 70 °F 89 °F (2012)
Min Temperature 41 °F 45 °F 35 °F (2001)
Degree Days  
Heating Degree Days 6    
Growing Degree Days 9 (Base 50)    
Moisture  
Dew Point 39 °F    
Average Humidity 61    
Maximum Humidity 88    
Minimum Humidity 19    
Precipitation  
Precipitation 0.00 in - - ()
Sea Level Pressure  
Sea Level Pressure 30.00 in    
Wind  
Wind Speed 7 mph (ESE)    
Max Wind Speed 26 mph    
Max Gust Speed 33 mph    
Visibility 10 miles    
Events Rain , Thunderstorm    
Averages and records for this station are not official NWS values.
T = Trace of Precipitation, MM = Missing Value Source: NWS Daily Summary

Daily Weather History Graph

Daily Weather History Graph

Search for Another Location

Airport or City:

Trip Planner

Search our weather history database for the weather conditions in past years. The results will help you decide how hot, cold, wet, or windy it might be!

Date:

Astronomy

May. 22, 2013 Rise Set
Actual Time 5:37 AM MDT 8:12 PM MDT
Civil Twilight 5:06 AM MDT 8:43 PM MDT
Nautical Twilight 4:27 AM MDT 9:22 PM MDT
Astronomical Twilight 3:43 AM MDT 10:06 PM MDT
Moon 5:38 PM MDT (5/22) 3:42 AM MDT (5/22)
Length of Visible Light 15h 37m
Length of Day
14h 35m
Waxing Gibbous, 92% of the Moon is Illuminated
May 22
Waxing Gibbous
May 24
Full
May 31
Last Quarter
Jun 8
New
Jun 16
First Quarter

Hourly Weather History & Observations

Time (MDT) Temp. Windchill Dew Point Humidity Pressure Visibility Wind Dir Wind Speed Gust Speed Precip Events Conditions
12:16 AM 46.4 °F 43.5 °F 35.6 °F 66% 30.02 in 10.0 mi SE 5.8 mph - N/A   Clear
12:36 AM 44.6 °F 40.7 °F 35.6 °F 71% 30.02 in 10.0 mi SSE 6.9 mph - N/A   Clear
12:56 AM 44.6 °F 41.4 °F 35.6 °F 71% 30.01 in 10.0 mi SSE 5.8 mph - N/A   Clear
1:16 AM 46.4 °F 43.5 °F 35.6 °F 66% 30.02 in 10.0 mi SE 5.8 mph - N/A   Clear
1:36 AM 46.4 °F 45.2 °F 35.6 °F 66% 30.01 in 10.0 mi SSE 3.5 mph - N/A   Clear
1:56 AM 46.4 °F 43.5 °F 35.6 °F 66% 30.00 in 10.0 mi SSE 5.8 mph - N/A   Clear
2:16 AM 44.6 °F 42.2 °F 35.6 °F 71% 30.00 in 10.0 mi South 4.6 mph - N/A   Clear
2:35 AM 42.8 °F 38.0 °F 35.6 °F 76% 29.99 in 10.0 mi SSE 8.1 mph - N/A   Clear
2:56 AM 42.8 °F 38.6 °F 35.6 °F 76% 29.98 in 10.0 mi SSE 6.9 mph - N/A   Clear
3:16 AM 42.8 °F 38.0 °F 35.6 °F 76% 29.97 in 10.0 mi SSE 8.1 mph - N/A   Clear
3:36 AM 41.0 °F 37.1 °F 35.6 °F 81% 29.97 in 10.0 mi SSE 5.8 mph - N/A   Clear
3:56 AM 42.8 °F 38.6 °F 35.6 °F 76% 29.97 in 10.0 mi South 6.9 mph - N/A   Clear
4:17 AM 42.8 °F 40.1 °F 35.6 °F 76% 29.96 in 10.0 mi South 4.6 mph - N/A   Clear
4:36 AM 41.0 °F 36.4 °F 35.6 °F 81% 29.96 in 10.0 mi South 6.9 mph - N/A   Clear
4:57 AM 44.6 °F 40.7 °F 35.6 °F 71% 29.96 in 10.0 mi SSW 6.9 mph - N/A   Clear
5:17 AM 44.6 °F 40.7 °F 35.6 °F 71% 29.96 in 10.0 mi SW 6.9 mph - N/A   Scattered Clouds
5:36 AM 46.4 °F 41.9 °F 37.4 °F 71% 29.96 in 10.0 mi SW 9.2 mph - N/A   Mostly Cloudy
5:57 AM 46.4 °F 41.9 °F 35.6 °F 66% 29.96 in 10.0 mi SW 9.2 mph - N/A   Scattered Clouds
6:16 AM 46.4 °F 43.5 °F 35.6 °F 66% 29.96 in 10.0 mi SSW 5.8 mph - N/A   Clear
6:37 AM 44.6 °F - 37.4 °F 76% 29.97 in 10.0 mi Calm Calm - N/A   Clear
6:54 AM 50.0 °F - 37.4 °F 62% 29.97 in 10.0 mi Calm Calm - N/A   Clear
7:50 AM 55.4 °F - 37.4 °F 51% 29.98 in 50.0 mi SW 8.1 mph - N/A   Scattered Clouds
8:48 AM 57.2 °F - 37.4 °F 48% 29.99 in 50.0 mi Calm Calm - N/A   Scattered Clouds
9:48 AM 62.6 °F - 37.4 °F 39% 29.98 in 50.0 mi West 3.5 mph - N/A   Partly Cloudy
10:48 AM 66.2 °F - 39.2 °F 37% 29.98 in 50.0 mi Calm Calm - N/A   Partly Cloudy
11:55 AM 69.8 °F - 39.2 °F 33% 29.96 in 50.0 mi ENE 5.8 mph - N/A   Partly Cloudy
12:48 PM 73.4 °F - 35.6 °F 25% 29.95 in 50.0 mi ENE 6.9 mph - N/A   Scattered Clouds
1:48 PM 73.4 °F - 35.6 °F 25% 29.93 in 50.0 mi East 4.6 mph - N/A   Scattered Clouds
2:50 PM 75.2 °F - 33.8 °F 22% 29.93 in 50.0 mi NE 11.5 mph - N/A   Scattered Clouds
3:58 PM 77.0 °F - 32.0 °F 19% 29.92 in 50.0 mi East 8.1 mph - N/A   Scattered Clouds
4:47 PM 77.0 °F - 32.0 °F 19% 29.92 in 50.0 mi ENE 8.1 mph - N/A   Scattered Clouds
5:55 PM 77.0 °F - 32.0 °F 19% 29.91 in 50.0 mi ENE 6.9 mph - N/A   Scattered Clouds
6:50 PM 73.4 °F - 37.4 °F 27% 29.93 in 50.0 mi East 11.5 mph - N/A   Mostly Cloudy
7:36 PM 71.6 °F - 35.6 °F 27% 29.94 in 50.0 mi East 13.8 mph - N/A Thunderstorm Mostly Cloudy
7:55 PM 68.0 °F - 42.8 °F 40% 29.96 in 30.0 mi ENE 15.0 mph - N/A Thunderstorm Mostly Cloudy
8:57 PM 62.6 °F - 44.6 °F 52% 30.02 in 10.0 mi NE 26.5 mph 33.4 mph N/A Rain Rain
9:17 PM 59.0 °F - 48.2 °F 67% 30.07 in 10.0 mi NNE 12.7 mph 17.3 mph N/A Rain Rain
9:37 PM 55.4 °F - 50.0 °F 82% 30.10 in 10.0 mi NE 12.7 mph 18.4 mph N/A Rain Heavy Rain
9:56 PM 55.4 °F - 50.0 °F 82% 30.09 in 10.0 mi NE 17.3 mph 21.9 mph N/A Rain Light Rain
10:16 PM 55.4 °F - 50.0 °F 82% 30.13 in 10.0 mi East 10.4 mph - N/A Rain Light Rain
10:36 PM 53.6 °F - 50.0 °F 88% 30.12 in 10.0 mi East 11.5 mph - N/A Rain Rain
10:56 PM 53.6 °F - 50.0 °F 88% 30.09 in 10.0 mi East 11.5 mph - N/A Rain Light Rain
11:16 PM 53.6 °F - 50.0 °F 88% 30.09 in 10.0 mi East 11.5 mph - N/A   Mostly Cloudy
11:36 PM 53.6 °F - 50.0 °F 88% 30.09 in 10.0 mi East 11.5 mph - N/A   Clear
11:55 PM 51.8 °F - 48.2 °F 88% 30.10 in 10.0 mi East 10.4 mph - N/A   Clear